Location: Colossi of Memnon
(25.7167°N, 32.6167°E)
Time: 05:09:10
(UTC+00:00)

Cosmos 2184 Rocket - Pass Details

Date: 05 March 2021
Orbit: 960 x 1001 km, 82.9° (Epoch: 17 April)

Event Time Altitude Azimuth Distance (km) Brightness Sun altitude
Rises 03:35:23 0° 352° (N) 3,703 6.9 -8.4°
Reaches altitude 10° 03:37:54 10° 351° (N) 2,757 6.3 -7.8°
Maximum altitude 03:44:13 76° 267° (W) 1,029 4.0 -6.4°
Drops below altitude 10° 03:50:33 10° 182° (S) 2,761 6.4 -4.9°
Sets 03:53:05 0° 181° (S) 3,708 7.1 -4.4°
